GEFSGL_prec_meanprecacc_312.txt.gz
Total_Precipitation_Accumulation
1.05 1.23 1.39 1.53 1.70 1.82 1.91 1.95 1.98 2.04 2.14 2.20 2.13 2.15 2.22 2.24 2.17 2.16 2.14 2.04 1.93 1.82 1.74 1.70 1.65 1.59 1.62 1.59 1.63 1.71 1.77 1.85 1.83 1.43 1.19 1.18 1.28 1.31 1.34 1.26 1.23 1.20 1.16
0.94 1.04 1.24 1.32 1.45 1.60 1.71 1.74 1.77 1.81 1.87 1.94 1.98 2.01 2.03 2.06 2.06 2.03 2.01 1.98 1.93 1.81 1.75 1.74 1.68 1.66 1.75 1.76 1.76 1.75 1.73 1.70 1.70 1.54 1.28 1.19 1.20 1.15 1.13 1.16 1.16 1.16 1.07
0.90 0.94 1.08 1.21 1.28 1.34 1.44 1.53 1.60 1.67 1.74 1.80 1.81 1.90 1.93 1.90 1.94 1.94 1.90 1.90 1.90 1.84 1.78 1.77 1.74 1.74 1.80 1.80 1.77 1.74 1.68 1.63 1.61 1.58 1.41 1.26 1.26 1.20 1.19 1.17 1.15 1.14 1.06
0.83 0.90 0.93 1.09 1.20 1.24 1.25 1.31 1.37 1.43 1.52 1.57 1.62 1.66 1.73 1.77 1.82 1.89 1.94 1.91 1.90 1.87 1.83 1.78 1.72 1.70 1.68 1.65 1.62 1.59 1.58 1.60 1.62 1.63 1.53 1.39 1.32 1.31 1.33 1.37 1.33 1.21 1.15
0.75 0.85 0.90 0.97 1.06 1.16 1.23 1.26 1.32 1.35 1.39 1.45 1.51 1.53 1.55 1.61 1.70 1.79 1.89 1.96 1.96 1.94 1.90 1.81 1.69 1.63 1.56 1.53 1.51 1.47 1.49 1.60 1.67 1.70 1.62 1.49 1.36 1.35 1.39 1.32 1.34 1.31 1.25
0.73 0.77 0.85 0.93 0.97 1.02 1.10 1.20 1.24 1.33 1.39 1.42 1.51 1.57 1.59 1.64 1.86 1.95 1.92 1.93 1.94 1.88 1.79 1.66 1.57 1.54 1.48 1.51 1.53 1.51 1.56 1.70 1.81 1.77 1.63 1.43 1.22 1.14 1.22 1.37 1.48 1.54 1.47
0.78 0.77 0.80 0.88 0.98 1.03 1.05 1.12 1.25 1.34 1.49 1.57 1.60 1.69 1.71 1.73 1.82 1.72 1.76 1.75 1.78 1.77 1.69 1.56 1.47 1.36 1.33 1.22 1.34 1.45 1.47 1.56 1.61 1.56 1.48 1.26 1.16 1.12 1.33 1.58 1.58 1.50 1.27
0.83 0.85 0.86 0.88 1.00 1.11 1.12 1.15 1.25 1.34 1.48 1.62 1.67 1.70 1.70 1.69 1.70 1.58 1.58 1.45 1.44 1.48 1.49 1.47 1.41 1.36 1.29 1.26 1.29 1.36 1.25 1.20 1.21 1.13 1.13 1.14 1.15 1.17 1.36 1.62 1.65 1.63 1.40
0.85 0.88 0.92 0.95 1.06 1.17 1.17 1.19 1.23 1.29 1.37 1.43 1.50 1.53 1.48 1.47 1.49 1.40 1.41 1.31 1.29 1.25 1.23 1.28 1.34 1.29 1.38 1.48 1.42 1.36 1.19 1.05 1.07 1.15 1.21 1.21 1.29 1.30 1.37 1.70 1.89 1.95 1.75
0.96 0.99 1.02 1.10 1.22 1.26 1.25 1.23 1.19 1.18 1.19 1.17 1.18 1.17 1.15 1.14 1.23 1.20 1.21 1.13 1.15 1.13 1.13 1.17 1.31 1.29 1.41 1.51 1.38 1.33 1.23 1.08 1.03 1.02 1.01 1.01 0.99 1.06 1.25 1.43 1.85 2.19 1.91
1.05 1.06 1.08 1.14 1.22 1.25 1.22 1.16 1.13 1.08 1.07 1.03 1.01 1.00 0.97 0.98 1.04 1.05 1.08 1.03 1.03 1.06 1.08 1.06 1.10 1.34 1.43 1.44 1.33 1.18 1.21 1.20 1.06 0.98 0.97 0.94 0.92 0.96 1.03 1.12 1.42 2.03 2.23
0.99 1.00 1.01 1.03 1.08 1.15 1.17 1.13 1.08 1.07 1.05 1.03 1.02 1.05 1.02 1.01 1.00 1.01 1.07 1.10 1.12 1.06 1.01 0.95 1.02 1.28 1.27 1.25 1.18 1.20 1.33 1.25 1.06 1.06 1.04 1.02 0.97 0.94 0.95 1.02 1.13 1.33 1.60
0.88 0.93 0.92 0.89 0.91 0.98 1.04 1.07 1.08 1.08 1.06 1.04 1.04 1.06 1.05 1.01 1.05 1.12 1.09 1.16 1.19 1.05 1.01 1.13 1.17 1.15 1.09 1.08 1.16 1.21 1.18 1.14 1.22 1.29 1.18 1.02 0.93 0.91 0.94 1.02 1.08 1.15 1.24
0.73 0.81 0.85 0.85 0.85 0.86 0.89 0.98 1.04 1.08 1.07 1.03 1.03 1.07 1.04 0.97 0.98 1.03 1.05 1.09 1.14 1.11 1.12 1.18 1.13 1.05 0.99 1.02 1.11 1.13 1.09 1.14 1.30 1.37 1.26 1.07 0.98 1.00 1.06 1.15 1.28 1.31 1.43
0.65 0.70 0.73 0.80 0.85 0.89 0.90 0.98 1.07 1.10 1.19 1.20 1.10 1.05 1.07 1.05 1.05 1.17 1.19 1.15 1.20 1.24 1.22 1.08 1.00 0.97 0.96 0.94 0.96 0.97 1.03 1.12 1.23 1.21 1.24 1.22 1.15 1.15 1.17 1.26 1.47 1.60 1.65
0.69 0.70 0.73 0.81 0.85 0.87 0.89 0.94 1.04 1.09 1.14 1.16 1.17 1.14 1.08 1.12 1.16 1.21 1.25 1.31 1.35 1.35 1.24 1.10 1.01 0.94 0.90 0.87 0.88 0.92 0.97 1.05 1.15 1.25 1.28 1.29 1.30 1.29 1.29 1.32 1.52 1.70 1.69
0.74 0.76 0.77 0.81 0.87 0.86 0.86 0.89 0.95 0.99 1.02 1.04 1.08 1.12 1.11 1.12 1.11 1.15 1.25 1.30 1.27 1.24 1.19 1.11 1.00 0.95 0.92 0.87 0.88 0.91 0.94 0.96 1.10 1.28 1.37 1.39 1.41 1.39 1.40 1.46 1.56 1.65 1.60
0.72 0.77 0.81 0.84 0.89 0.89 0.86 0.87 0.88 0.91 0.94 0.96 1.00 1.07 1.09 1.11 1.15 1.18 1.24 1.25 1.22 1.13 1.05 1.04 0.99 0.96 0.96 0.98 0.99 1.02 1.02 1.02 1.11 1.24 1.32 1.38 1.47 1.54 1.54 1.52 1.56 1.60 1.55
0.69 0.73 0.77 0.83 0.88 0.92 0.91 0.89 0.89 0.87 0.88 0.91 0.93 1.03 1.12 1.13 1.17 1.22 1.18 1.09 1.04 1.00 0.96 0.94 0.93 0.95 1.00 1.05 1.08 1.11 1.16 1.20 1.25 1.37 1.39 1.42 1.49 1.62 1.58 1.48 1.46 1.43 1.38
0.65 0.75 0.80 0.84 0.86 0.88 0.91 0.93 0.93 0.89 0.88 0.87 0.88 0.97 1.08 1.16 1.14 1.09 1.05 1.00 1.00 0.99 0.95 0.94 0.93 0.93 1.01 1.08 1.12 1.17 1.23 1.26 1.30 1.39 1.44 1.48 1.53 1.62 1.61 1.45 1.35 1.34 1.26
0.66 0.70 0.78 0.81 0.85 0.88 0.90 0.94 0.94 0.92 0.91 0.89 0.88 0.96 1.16 1.15 1.04 0.95 0.94 0.98 1.01 1.02 1.00 0.98 0.97 1.00 1.06 1.12 1.18 1.20 1.25 1.27 1.32 1.43 1.49 1.47 1.48 1.48 1.37 1.34 1.30 1.30 1.31
0.68 0.69 0.70 0.75 0.83 0.89 0.95 0.96 0.97 0.94 0.90 0.89 0.89 0.93 1.06 1.01 0.98 0.97 0.97 0.95 0.95 0.96 0.97 1.04 1.05 1.03 1.15 1.32 1.45 1.49 1.38 1.30 1.31 1.42 1.45 1.36 1.31 1.31 1.30 1.33 1.31 1.32 1.34
0.69 0.71 0.72 0.76 0.85 0.93 0.97 0.96 0.98 0.96 0.93 0.90 0.91 0.91 0.91 0.93 0.96 0.99 1.00 0.99 0.96 0.94 0.94 1.00 1.07 1.04 1.06 1.25 1.47 1.76 1.84 1.61 1.48 1.56 1.66 1.52 1.37 1.34 1.38 1.39 1.32 1.31 1.28
0.69 0.73 0.76 0.79 0.85 0.90 0.93 0.94 0.95 0.96 0.95 0.93 0.91 0.91 0.92 0.93 0.95 0.96 0.97 0.98 0.98 0.95 0.93 0.98 1.04 1.04 1.06 1.22 1.39 1.52 1.66 1.77 1.94 1.99 1.95 1.93 1.67 1.44 1.41 1.39 1.29 1.24 1.25
0.68 0.74 0.78 0.82 0.86 0.89 0.91 0.92 0.92 0.93 0.94 0.95 0.93 0.92 0.92 0.92 0.90 0.90 0.90 0.91 0.94 0.93 0.89 0.91 0.98 1.02 1.07 1.17 1.30 1.39 1.51 1.67 1.86 1.96 1.87 1.79 1.60 1.41 1.38 1.36 1.28 1.25 1.24
0.67 0.72 0.76 0.79 0.84 0.87 0.91 0.93 0.93 0.94 0.97 0.96 0.95 0.94 0.94 0.92 0.87 0.85 0.85 0.87 0.89 0.88 0.84 0.85 0.88 0.96 1.05 1.15 1.18 1.29 1.42 1.40 1.36 1.38 1.58 1.71 1.60 1.38 1.34 1.40 1.29 1.26 1.24

GEFSGL_prec_meanprecacc_318.txt.gz
Total_Precipitation_Accumulation
1.05 1.24 1.41 1.55 1.72 1.86 1.95 2.00 2.02 2.07 2.17 2.22 2.17 2.22 2.31 2.34 2.28 2.28 2.27 2.18 2.05 1.92 1.83 1.77 1.70 1.63 1.65 1.61 1.66 1.75 1.80 1.88 1.86 1.45 1.23 1.21 1.31 1.33 1.36 1.27 1.24 1.21 1.16
0.95 1.05 1.25 1.33 1.47 1.63 1.75 1.80 1.81 1.84 1.90 1.96 2.00 2.04 2.08 2.12 2.15 2.15 2.13 2.10 2.06 1.94 1.85 1.81 1.74 1.70 1.77 1.78 1.78 1.77 1.76 1.73 1.73 1.57 1.32 1.23 1.22 1.17 1.15 1.17 1.18 1.17 1.08
0.91 0.95 1.09 1.22 1.30 1.37 1.48 1.59 1.66 1.70 1.76 1.82 1.83 1.92 1.97 1.94 1.99 2.01 2.01 2.01 2.01 1.96 1.90 1.87 1.82 1.80 1.84 1.82 1.79 1.77 1.70 1.65 1.64 1.61 1.44 1.29 1.28 1.22 1.20 1.18 1.16 1.15 1.07
0.84 0.91 0.94 1.10 1.21 1.26 1.29 1.36 1.44 1.47 1.55 1.59 1.64 1.67 1.75 1.80 1.85 1.93 1.99 1.98 1.98 1.96 1.93 1.88 1.82 1.78 1.75 1.70 1.66 1.62 1.61 1.63 1.65 1.67 1.57 1.43 1.36 1.34 1.35 1.38 1.34 1.22 1.16
0.76 0.86 0.91 0.98 1.07 1.18 1.25 1.30 1.38 1.41 1.42 1.47 1.52 1.55 1.56 1.62 1.72 1.82 1.92 2.00 2.01 2.00 1.98 1.89 1.77 1.71 1.64 1.60 1.57 1.53 1.54 1.65 1.72 1.75 1.66 1.53 1.41 1.40 1.43 1.35 1.36 1.32 1.26
0.75 0.79 0.87 0.94 0.98 1.04 1.13 1.23 1.30 1.40 1.44 1.45 1.53 1.58 1.60 1.65 1.88 1.98 1.96 1.97 1.97 1.93 1.85 1.72 1.63 1.61 1.55 1.58 1.59 1.57 1.62 1.76 1.86 1.82 1.66 1.47 1.26 1.19 1.27 1.41 1.52 1.57 1.49
0.80 0.78 0.82 0.90 1.00 1.05 1.07 1.16 1.30 1.40 1.56 1.63 1.64 1.72 1.72 1.74 1.83 1.74 1.79 1.79 1.82 1.82 1.73 1.60 1.51 1.41 1.39 1.28 1.39 1.50 1.52 1.62 1.66 1.60 1.52 1.30 1.19 1.16 1.38 1.63 1.63 1.54 1.30
0.84 0.86 0.88 0.90 1.02 1.13 1.15 1.19 1.29 1.39 1.54 1.68 1.71 1.73 1.72 1.71 1.72 1.60 1.60 1.49 1.48 1.51 1.53 1.51 1.45 1.39 1.33 1.31 1.35 1.41 1.30 1.24 1.24 1.16 1.16 1.17 1.18 1.21 1.41 1.68 1.70 1.67 1.44
0.86 0.90 0.93 0.96 1.08 1.19 1.20 1.22 1.27 1.33 1.41 1.48 1.54 1.56 1.51 1.48 1.50 1.42 1.43 1.34 1.33 1.29 1.26 1.32 1.38 1.32 1.42 1.53 1.48 1.42 1.24 1.09 1.11 1.19 1.24 1.25 1.32 1.33 1.42 1.77 1.95 2.00 1.80
0.96 1.00 1.03 1.12 1.23 1.29 1.27 1.25 1.23 1.23 1.23 1.21 1.22 1.20 1.18 1.17 1.25 1.23 1.24 1.17 1.20 1.17 1.17 1.21 1.36 1.33 1.45 1.56 1.43 1.39 1.28 1.11 1.06 1.05 1.04 1.05 1.03 1.09 1.29 1.48 1.92 2.26 1.96
1.06 1.07 1.08 1.15 1.23 1.27 1.24 1.19 1.16 1.12 1.10 1.07 1.04 1.02 0.99 1.00 1.06 1.07 1.11 1.07 1.08 1.12 1.14 1.12 1.15 1.40 1.49 1.50 1.39 1.24 1.26 1.23 1.09 1.01 1.00 0.97 0.96 1.00 1.06 1.16 1.47 2.09 2.28
0.99 1.01 1.01 1.03 1.09 1.16 1.19 1.14 1.10 1.10 1.09 1.06 1.05 1.07 1.04 1.03 1.03 1.03 1.10 1.14 1.17 1.11 1.06 1.00 1.08 1.33 1.33 1.30 1.25 1.27 1.39 1.31 1.10 1.09 1.07 1.04 1.00 0.97 0.98 1.05 1.17 1.38 1.66
0.89 0.94 0.92 0.89 0.92 0.98 1.05 1.08 1.09 1.10 1.09 1.08 1.07 1.09 1.08 1.03 1.07 1.14 1.12 1.20 1.22 1.09 1.05 1.18 1.22 1.20 1.15 1.14 1.22 1.27 1.23 1.20 1.28 1.34 1.21 1.04 0.95 0.93 0.97 1.05 1.11 1.19 1.29
0.74 0.81 0.85 0.85 0.86 0.86 0.90 0.99 1.05 1.10 1.10 1.06 1.07 1.10 1.07 0.99 1.00 1.06 1.08 1.12 1.17 1.14 1.16 1.21 1.18 1.09 1.04 1.07 1.16 1.17 1.13 1.18 1.35 1.42 1.29 1.09 0.99 1.02 1.10 1.18 1.33 1.36 1.49
0.65 0.70 0.74 0.80 0.85 0.89 0.90 0.98 1.08 1.13 1.22 1.24 1.14 1.09 1.11 1.09 1.09 1.21 1.24 1.19 1.24 1.28 1.26 1.11 1.02 1.00 0.99 0.97 0.99 1.01 1.06 1.16 1.28 1.25 1.28 1.25 1.18 1.18 1.21 1.30 1.52 1.65 1.71
0.70 0.70 0.74 0.81 0.85 0.87 0.89 0.95 1.05 1.10 1.16 1.18 1.20 1.17 1.12 1.16 1.20 1.25 1.29 1.35 1.40 1.39 1.29 1.14 1.04 0.97 0.93 0.90 0.91 0.96 1.00 1.09 1.20 1.30 1.34 1.34 1.34 1.32 1.33 1.37 1.57 1.76 1.75
0.75 0.77 0.78 0.82 0.88 0.87 0.86 0.89 0.96 1.00 1.03 1.05 1.10 1.15 1.15 1.16 1.15 1.19 1.28 1.33 1.30 1.28 1.23 1.14 1.04 0.98 0.95 0.90 0.91 0.94 0.97 0.99 1.14 1.33 1.42 1.44 1.46 1.43 1.45 1.51 1.61 1.71 1.66
0.73 0.78 0.82 0.85 0.90 0.90 0.87 0.88 0.90 0.92 0.95 0.96 1.01 1.08 1.12 1.14 1.18 1.22 1.27 1.27 1.24 1.16 1.08 1.08 1.03 0.99 0.99 1.01 1.02 1.05 1.05 1.05 1.15 1.29 1.36 1.42 1.51 1.59 1.59 1.58 1.62 1.66 1.61
0.70 0.74 0.78 0.84 0.89 0.93 0.92 0.90 0.90 0.88 0.89 0.92 0.94 1.04 1.13 1.14 1.19 1.24 1.21 1.12 1.08 1.04 0.99 0.97 0.96 0.98 1.04 1.08 1.11 1.14 1.19 1.24 1.28 1.42 1.45 1.46 1.53 1.66 1.63 1.53 1.52 1.50 1.44
0.66 0.76 0.81 0.85 0.87 0.89 0.92 0.94 0.93 0.90 0.88 0.88 0.89 0.97 1.09 1.16 1.15 1.11 1.07 1.02 1.03 1.03 0.98 0.97 0.96 0.97 1.05 1.12 1.17 1.21 1.28 1.30 1.34 1.45 1.51 1.53 1.58 1.67 1.66 1.51 1.41 1.40 1.32
0.67 0.71 0.79 0.82 0.86 0.88 0.91 0.95 0.94 0.92 0.91 0.90 0.89 0.97 1.17 1.17 1.06 0.96 0.96 1.00 1.04 1.04 1.03 1.02 1.01 1.04 1.10 1.17 1.23 1.26 1.31 1.33 1.37 1.49 1.55 1.54 1.53 1.53 1.42 1.40 1.37 1.36 1.37
0.69 0.70 0.71 0.76 0.84 0.90 0.96 0.97 0.98 0.95 0.90 0.89 0.89 0.94 1.07 1.02 0.99 0.98 0.98 0.97 0.97 0.98 1.01 1.08 1.08 1.07 1.20 1.36 1.49 1.54 1.44 1.35 1.36 1.48 1.51 1.42 1.37 1.36 1.36 1.38 1.37 1.38 1.40
0.70 0.73 0.74 0.78 0.86 0.95 0.98 0.97 0.99 0.97 0.94 0.91 0.91 0.92 0.92 0.94 0.97 1.00 1.02 1.01 0.98 0.96 0.97 1.03 1.11 1.07 1.10 1.29 1.51 1.81 1.88 1.65 1.52 1.61 1.72 1.58 1.43 1.40 1.44 1.45 1.38 1.37 1.34
0.71 0.75 0.78 0.81 0.86 0.91 0.94 0.95 0.96 0.97 0.96 0.94 0.92 0.92 0.93 0.95 0.96 0.97 0.98 1.00 1.00 0.97 0.95 1.01 1.07 1.07 1.09 1.26 1.42 1.56 1.70 1.81 1.98 2.03 2.00 1.99 1.73 1.50 1.47 1.45 1.35 1.31 1.32
0.70 0.76 0.80 0.84 0.88 0.90 0.92 0.93 0.93 0.94 0.95 0.96 0.95 0.94 0.94 0.94 0.92 0.92 0.92 0.94 0.96 0.96 0.91 0.93 1.01 1.06 1.10 1.21 1.34 1.43 1.55 1.71 1.90 2.00 1.92 1.84 1.65 1.47 1.44 1.43 1.35 1.32 1.32
0.69 0.74 0.78 0.81 0.86 0.89 0.93 0.95 0.94 0.96 0.98 0.98 0.97 0.96 0.96 0.94 0.89 0.87 0.87 0.89 0.91 0.90 0.87 0.87 0.91 0.99 1.08 1.18 1.22 1.33 1.45 1.43 1.39 1.42 1.62 1.76 1.64 1.43 1.40 1.46 1.36 1.32 1.31

GEFSGL_prec_meanprecacc_324.txt.gz
Total_Precipitation_Accumulation
1.06 1.25 1.42 1.57 1.75 1.88 1.98 2.02 2.04 2.09 2.19 2.24 2.19 2.24 2.34 2.39 2.35 2.35 2.33 2.23 2.10 1.96 1.87 1.81 1.75 1.69 1.71 1.67 1.70 1.78 1.82 1.90 1.89 1.48 1.26 1.25 1.34 1.35 1.39 1.30 1.26 1.24 1.18
0.95 1.06 1.27 1.35 1.49 1.66 1.78 1.82 1.84 1.87 1.92 1.98 2.03 2.07 2.10 2.15 2.19 2.20 2.19 2.16 2.11 1.98 1.89 1.85 1.77 1.75 1.84 1.84 1.84 1.82 1.79 1.75 1.76 1.60 1.35 1.26 1.25 1.20 1.17 1.19 1.20 1.19 1.10
0.92 0.96 1.10 1.24 1.32 1.40 1.52 1.62 1.68 1.72 1.79 1.84 1.85 1.95 1.99 1.97 2.02 2.06 2.06 2.07 2.07 2.01 1.95 1.92 1.86 1.84 1.89 1.89 1.85 1.82 1.75 1.69 1.67 1.63 1.46 1.32 1.31 1.25 1.23 1.21 1.18 1.17 1.10
0.84 0.92 0.95 1.12 1.23 1.28 1.33 1.40 1.48 1.51 1.58 1.62 1.67 1.71 1.79 1.83 1.88 1.97 2.04 2.03 2.03 2.01 1.97 1.93 1.87 1.84 1.80 1.76 1.72 1.67 1.66 1.68 1.70 1.71 1.60 1.45 1.39 1.37 1.38 1.42 1.37 1.25 1.18
0.76 0.86 0.92 0.99 1.08 1.19 1.29 1.35 1.43 1.45 1.46 1.50 1.55 1.58 1.60 1.67 1.76 1.86 1.97 2.06 2.06 2.05 2.02 1.94 1.82 1.77 1.70 1.67 1.64 1.59 1.59 1.70 1.78 1.80 1.70 1.56 1.44 1.44 1.47 1.39 1.40 1.35 1.29
0.75 0.80 0.88 0.96 1.00 1.06 1.16 1.27 1.35 1.45 1.48 1.49 1.57 1.61 1.64 1.69 1.92 2.01 2.00 2.03 2.04 1.99 1.90 1.76 1.67 1.66 1.60 1.64 1.67 1.64 1.70 1.84 1.94 1.89 1.72 1.51 1.30 1.22 1.31 1.45 1.57 1.62 1.54
0.82 0.80 0.84 0.92 1.02 1.07 1.10 1.19 1.35 1.45 1.60 1.67 1.68 1.75 1.77 1.79 1.87 1.77 1.82 1.83 1.88 1.87 1.78 1.64 1.54 1.44 1.44 1.32 1.44 1.56 1.60 1.69 1.74 1.68 1.59 1.35 1.23 1.20 1.42 1.68 1.67 1.58 1.34
0.86 0.88 0.90 0.92 1.04 1.15 1.17 1.22 1.33 1.44 1.58 1.73 1.77 1.78 1.76 1.76 1.76 1.63 1.63 1.51 1.51 1.55 1.57 1.54 1.48 1.42 1.36 1.34 1.38 1.46 1.35 1.30 1.31 1.23 1.22 1.23 1.23 1.26 1.46 1.73 1.76 1.72 1.48
0.88 0.92 0.96 0.99 1.10 1.21 1.22 1.25 1.31 1.38 1.46 1.53 1.61 1.62 1.56 1.53 1.55 1.46 1.46 1.36 1.35 1.32 1.29 1.34 1.40 1.34 1.44 1.55 1.50 1.45 1.28 1.13 1.16 1.24 1.30 1.30 1.37 1.39 1.48 1.83 2.02 2.06 1.84
0.98 1.02 1.05 1.14 1.26 1.31 1.30 1.28 1.26 1.26 1.27 1.25 1.27 1.27 1.24 1.22 1.30 1.27 1.27 1.19 1.22 1.19 1.19 1.23 1.38 1.35 1.46 1.57 1.45 1.42 1.32 1.14 1.08 1.08 1.08 1.10 1.08 1.15 1.35 1.56 1.99 2.32 2.01
1.07 1.08 1.10 1.17 1.25 1.30 1.27 1.21 1.19 1.15 1.14 1.10 1.08 1.07 1.04 1.05 1.11 1.12 1.15 1.10 1.10 1.14 1.15 1.13 1.17 1.41 1.50 1.52 1.41 1.27 1.28 1.26 1.12 1.03 1.03 1.00 1.00 1.04 1.11 1.21 1.52 2.15 2.34
1.00 1.02 1.02 1.04 1.10 1.18 1.21 1.17 1.12 1.12 1.11 1.09 1.08 1.10 1.07 1.06 1.07 1.08 1.15 1.18 1.20 1.14 1.09 1.01 1.09 1.35 1.35 1.33 1.27 1.30 1.43 1.34 1.14 1.13 1.11 1.07 1.03 1.00 1.01 1.08 1.21 1.42 1.70
0.89 0.94 0.93 0.90 0.93 0.99 1.06 1.10 1.11 1.11 1.11 1.10 1.10 1.12 1.11 1.06 1.09 1.17 1.16 1.24 1.25 1.11 1.07 1.20 1.24 1.22 1.17 1.17 1.25 1.30 1.27 1.24 1.32 1.39 1.25 1.08 0.97 0.95 0.99 1.08 1.15 1.23 1.34
0.74 0.82 0.85 0.85 0.86 0.87 0.90 1.00 1.06 1.11 1.11 1.08 1.09 1.13 1.10 1.02 1.03 1.08 1.11 1.16 1.21 1.17 1.18 1.23 1.20 1.11 1.06 1.10 1.19 1.21 1.17 1.23 1.40 1.47 1.34 1.13 1.03 1.06 1.13 1.22 1.37 1.41 1.54
0.66 0.70 0.74 0.80 0.85 0.89 0.91 0.99 1.09 1.14 1.24 1.26 1.17 1.13 1.15 1.13 1.13 1.26 1.28 1.23 1.28 1.32 1.29 1.14 1.04 1.02 1.01 0.99 1.02 1.04 1.10 1.21 1.33 1.30 1.33 1.30 1.23 1.23 1.26 1.34 1.56 1.70 1.76
0.70 0.70 0.74 0.81 0.85 0.87 0.89 0.95 1.05 1.11 1.16 1.19 1.22 1.20 1.15 1.20 1.24 1.30 1.34 1.39 1.44 1.43 1.32 1.17 1.06 0.99 0.95 0.92 0.93 0.98 1.03 1.12 1.24 1.35 1.38 1.38 1.39 1.37 1.37 1.41 1.61 1.80 1.79
0.75 0.77 0.78 0.83 0.88 0.87 0.87 0.90 0.96 1.00 1.04 1.05 1.10 1.16 1.16 1.18 1.18 1.22 1.32 1.37 1.34 1.31 1.27 1.18 1.06 1.01 0.97 0.92 0.93 0.96 0.99 1.01 1.16 1.36 1.45 1.48 1.50 1.48 1.49 1.55 1.65 1.75 1.70
0.73 0.79 0.82 0.86 0.91 0.90 0.88 0.89 0.90 0.93 0.95 0.97 1.02 1.09 1.13 1.16 1.20 1.24 1.29 1.30 1.28 1.19 1.12 1.11 1.07 1.02 1.02 1.03 1.04 1.07 1.07 1.07 1.17 1.31 1.39 1.46 1.55 1.63 1.63 1.62 1.66 1.70 1.66
0.71 0.74 0.78 0.85 0.90 0.94 0.93 0.91 0.91 0.89 0.90 0.93 0.95 1.05 1.14 1.15 1.20 1.26 1.22 1.14 1.11 1.06 1.02 1.00 0.99 1.02 1.07 1.12 1.14 1.16 1.21 1.26 1.31 1.45 1.47 1.49 1.57 1.70 1.67 1.57 1.56 1.53 1.48
0.66 0.76 0.82 0.86 0.88 0.89 0.93 0.95 0.94 0.91 0.89 0.88 0.89 0.98 1.09 1.17 1.16 1.12 1.08 1.04 1.05 1.05 1.00 1.00 0.99 1.00 1.08 1.15 1.20 1.24 1.30 1.32 1.36 1.47 1.53 1.56 1.61 1.70 1.70 1.55 1.45 1.45 1.36
0.67 0.71 0.79 0.83 0.87 0.89 0.92 0.95 0.95 0.93 0.92 0.91 0.89 0.97 1.18 1.18 1.07 0.97 0.97 1.01 1.05 1.06 1.05 1.04 1.03 1.06 1.13 1.20 1.26 1.29 1.33 1.35 1.40 1.52 1.58 1.56 1.57 1.57 1.46 1.44 1.41 1.40 1.42
0.69 0.71 0.71 0.77 0.85 0.91 0.96 0.98 0.98 0.95 0.91 0.90 0.90 0.94 1.08 1.03 1.00 0.99 0.99 0.98 0.98 1.00 1.02 1.10 1.11 1.10 1.22 1.39 1.52 1.57 1.47 1.38 1.39 1.51 1.54 1.44 1.40 1.41 1.40 1.43 1.42 1.43 1.45
0.71 0.73 0.74 0.78 0.86 0.95 0.99 0.98 0.99 0.97 0.94 0.91 0.92 0.92 0.93 0.94 0.98 1.01 1.03 1.02 0.99 0.98 0.98 1.05 1.13 1.10 1.12 1.31 1.53 1.83 1.92 1.69 1.56 1.65 1.76 1.61 1.46 1.45 1.49 1.50 1.43 1.43 1.40
0.72 0.76 0.79 0.82 0.87 0.92 0.95 0.96 0.97 0.97 0.97 0.95 0.93 0.93 0.94 0.95 0.97 0.98 0.99 1.01 1.02 0.98 0.96 1.02 1.09 1.09 1.11 1.27 1.44 1.58 1.72 1.84 2.01 2.07 2.04 2.03 1.77 1.54 1.51 1.50 1.40 1.37 1.38
0.71 0.77 0.81 0.85 0.89 0.92 0.93 0.94 0.94 0.95 0.96 0.97 0.95 0.95 0.95 0.94 0.93 0.93 0.93 0.95 0.97 0.97 0.92 0.94 1.02 1.07 1.11 1.22 1.35 1.45 1.58 1.74 1.93 2.03 1.96 1.89 1.71 1.52 1.49 1.47 1.40 1.37 1.38
0.71 0.75 0.79 0.82 0.87 0.91 0.94 0.96 0.96 0.97 0.99 0.99 0.98 0.97 0.97 0.95 0.90 0.88 0.88 0.90 0.92 0.91 0.88 0.88 0.92 1.00 1.09 1.20 1.23 1.35 1.48 1.46 1.43 1.46 1.66 1.80 1.69 1.48 1.45 1.52 1.41 1.38 1.37

GEFSGL_prec_meanprecacc_330.txt.gz
Total_Precipitation_Accumulation
1.07 1.27 1.45 1.59 1.77 1.90 2.00 2.04 2.06 2.11 2.21 2.27 2.21 2.26 2.36 2.40 2.36 2.36 2.35 2.25 2.12 1.99 1.90 1.84 1.78 1.72 1.74 1.70 1.73 1.81 1.86 1.94 1.93 1.50 1.28 1.26 1.36 1.37 1.40 1.32 1.28 1.26 1.20
0.96 1.08 1.28 1.37 1.51 1.68 1.80 1.84 1.85 1.88 1.94 2.00 2.04 2.08 2.11 2.16 2.21 2.22 2.21 2.18 2.13 2.02 1.92 1.89 1.81 1.79 1.88 1.88 1.87 1.85 1.83 1.79 1.81 1.64 1.37 1.27 1.26 1.21 1.19 1.21 1.22 1.21 1.12
0.92 0.97 1.11 1.25 1.33 1.42 1.54 1.64 1.70 1.74 1.81 1.85 1.87 1.96 2.00 1.98 2.03 2.08 2.08 2.08 2.08 2.04 1.99 1.96 1.90 1.88 1.94 1.93 1.89 1.85 1.78 1.73 1.71 1.67 1.50 1.35 1.33 1.27 1.25 1.23 1.20 1.20 1.12
0.85 0.93 0.96 1.13 1.24 1.30 1.35 1.43 1.51 1.53 1.61 1.64 1.69 1.72 1.80 1.85 1.90 1.99 2.06 2.06 2.06 2.04 2.01 1.97 1.91 1.88 1.85 1.80 1.76 1.70 1.69 1.72 1.75 1.76 1.64 1.50 1.43 1.40 1.41 1.44 1.40 1.28 1.21
0.77 0.87 0.92 1.00 1.09 1.20 1.30 1.37 1.46 1.48 1.51 1.55 1.58 1.61 1.63 1.69 1.78 1.88 2.00 2.08 2.09 2.08 2.06 1.99 1.86 1.81 1.74 1.71 1.69 1.62 1.63 1.75 1.83 1.86 1.76 1.61 1.49 1.48 1.51 1.43 1.44 1.39 1.32
0.76 0.80 0.88 0.97 1.01 1.07 1.17 1.28 1.37 1.47 1.51 1.53 1.61 1.65 1.67 1.73 1.95 2.05 2.03 2.05 2.06 2.02 1.94 1.81 1.73 1.71 1.66 1.70 1.72 1.69 1.75 1.89 2.00 1.95 1.78 1.56 1.34 1.27 1.35 1.50 1.62 1.68 1.59
0.82 0.81 0.85 0.93 1.02 1.08 1.11 1.20 1.37 1.47 1.62 1.69 1.70 1.78 1.80 1.83 1.91 1.81 1.86 1.87 1.91 1.91 1.82 1.69 1.60 1.50 1.49 1.37 1.50 1.61 1.65 1.75 1.80 1.73 1.64 1.40 1.27 1.23 1.47 1.72 1.72 1.63 1.40
0.87 0.89 0.91 0.93 1.05 1.16 1.19 1.24 1.35 1.46 1.60 1.75 1.79 1.81 1.80 1.80 1.80 1.67 1.67 1.55 1.55 1.59 1.61 1.59 1.53 1.48 1.41 1.39 1.43 1.50 1.41 1.36 1.36 1.29 1.28 1.29 1.28 1.30 1.51 1.78 1.80 1.77 1.53
0.89 0.93 0.97 1.00 1.11 1.22 1.24 1.27 1.33 1.40 1.48 1.56 1.64 1.65 1.60 1.58 1.59 1.50 1.50 1.40 1.39 1.36 1.34 1.39 1.45 1.39 1.49 1.60 1.55 1.50 1.33 1.18 1.21 1.29 1.36 1.36 1.44 1.45 1.54 1.90 2.08 2.13 1.90
1.00 1.03 1.07 1.15 1.27 1.33 1.32 1.30 1.29 1.30 1.31 1.29 1.31 1.30 1.28 1.27 1.34 1.30 1.31 1.23 1.26 1.24 1.25 1.29 1.44 1.41 1.52 1.62 1.50 1.46 1.37 1.19 1.13 1.13 1.13 1.14 1.12 1.19 1.40 1.61 2.06 2.39 2.06
1.08 1.10 1.11 1.19 1.27 1.31 1.29 1.23 1.22 1.19 1.17 1.13 1.11 1.10 1.08 1.10 1.15 1.15 1.19 1.14 1.15 1.18 1.21 1.19 1.23 1.48 1.56 1.57 1.46 1.32 1.34 1.31 1.16 1.07 1.06 1.03 1.03 1.07 1.15 1.25 1.56 2.20 2.40
1.01 1.03 1.03 1.05 1.11 1.19 1.23 1.19 1.15 1.15 1.14 1.12 1.11 1.13 1.11 1.10 1.11 1.11 1.18 1.21 1.23 1.18 1.13 1.06 1.15 1.41 1.40 1.38 1.32 1.34 1.47 1.38 1.17 1.16 1.14 1.10 1.05 1.03 1.03 1.10 1.23 1.45 1.74
0.90 0.95 0.94 0.91 0.94 1.01 1.08 1.12 1.14 1.15 1.14 1.13 1.13 1.15 1.14 1.10 1.13 1.21 1.20 1.27 1.29 1.15 1.11 1.23 1.28 1.26 1.21 1.21 1.29 1.34 1.30 1.27 1.35 1.41 1.28 1.10 0.99 0.97 1.01 1.10 1.17 1.25 1.36
0.75 0.83 0.86 0.86 0.87 0.88 0.92 1.01 1.08 1.14 1.15 1.11 1.13 1.17 1.13 1.05 1.06 1.12 1.15 1.19 1.24 1.19 1.21 1.26 1.22 1.14 1.09 1.12 1.22 1.23 1.19 1.25 1.42 1.49 1.36 1.15 1.04 1.07 1.14 1.24 1.39 1.43 1.57
0.66 0.71 0.74 0.81 0.86 0.90 0.92 1.00 1.10 1.15 1.26 1.29 1.20 1.16 1.19 1.17 1.17 1.30 1.33 1.27 1.32 1.35 1.32 1.16 1.06 1.03 1.03 1.01 1.04 1.06 1.12 1.23 1.35 1.31 1.34 1.31 1.24 1.24 1.27 1.35 1.58 1.72 1.79
0.70 0.70 0.74 0.82 0.86 0.88 0.90 0.96 1.06 1.12 1.18 1.21 1.24 1.23 1.18 1.23 1.28 1.33 1.38 1.43 1.48 1.47 1.36 1.20 1.09 1.01 0.97 0.94 0.96 1.01 1.05 1.14 1.26 1.36 1.40 1.40 1.40 1.39 1.39 1.43 1.63 1.82 1.81
0.76 0.78 0.79 0.83 0.89 0.88 0.87 0.90 0.97 1.01 1.04 1.06 1.12 1.18 1.19 1.21 1.21 1.26 1.36 1.41 1.38 1.35 1.31 1.22 1.09 1.04 0.99 0.94 0.95 0.99 1.01 1.03 1.18 1.37 1.47 1.49 1.52 1.49 1.51 1.57 1.67 1.77 1.72
0.73 0.79 0.83 0.86 0.91 0.91 0.89 0.89 0.91 0.94 0.96 0.98 1.02 1.10 1.14 1.18 1.23 1.27 1.33 1.34 1.32 1.22 1.16 1.15 1.10 1.06 1.05 1.06 1.06 1.09 1.09 1.09 1.19 1.32 1.40 1.47 1.57 1.65 1.65 1.64 1.68 1.72 1.68
0.71 0.75 0.79 0.85 0.91 0.94 0.93 0.92 0.92 0.90 0.90 0.93 0.95 1.06 1.15 1.17 1.23 1.29 1.26 1.19 1.16 1.11 1.06 1.05 1.03 1.06 1.11 1.15 1.17 1.19 1.24 1.29 1.33 1.47 1.49 1.50 1.58 1.72 1.70 1.59 1.58 1.56 1.51
0.67 0.77 0.83 0.87 0.89 0.90 0.93 0.96 0.95 0.91 0.90 0.89 0.90 0.99 1.10 1.18 1.18 1.14 1.11 1.07 1.09 1.09 1.05 1.05 1.04 1.05 1.12 1.19 1.24 1.27 1.33 1.35 1.39 1.50 1.55 1.58 1.63 1.73 1.72 1.58 1.48 1.48 1.39
0.68 0.72 0.80 0.84 0.87 0.90 0.93 0.96 0.96 0.94 0.93 0.91 0.90 0.98 1.19 1.20 1.09 0.99 0.99 1.04 1.08 1.10 1.09 1.08 1.07 1.10 1.16 1.24 1.30 1.32 1.37 1.38 1.43 1.55 1.61 1.59 1.60 1.59 1.49 1.46 1.43 1.43 1.44
0.70 0.72 0.72 0.78 0.86 0.92 0.97 0.99 0.99 0.96 0.92 0.91 0.90 0.95 1.09 1.04 1.02 1.01 1.00 1.00 1.00 1.02 1.05 1.13 1.14 1.13 1.26 1.43 1.56 1.61 1.50 1.42 1.42 1.54 1.57 1.47 1.43 1.43 1.43 1.45 1.44 1.45 1.48
0.72 0.74 0.75 0.79 0.87 0.96 1.00 0.98 1.00 0.98 0.95 0.92 0.93 0.93 0.94 0.95 0.99 1.02 1.04 1.03 1.00 1.00 1.00 1.08 1.16 1.12 1.14 1.34 1.56 1.87 1.95 1.72 1.60 1.69 1.80 1.65 1.49 1.47 1.52 1.54 1.46 1.46 1.42
0.73 0.77 0.80 0.82 0.88 0.92 0.96 0.97 0.97 0.98 0.98 0.96 0.94 0.94 0.95 0.97 0.98 0.99 1.00 1.03 1.03 1.00 0.98 1.04 1.11 1.11 1.12 1.29 1.46 1.60 1.75 1.87 2.05 2.11 2.08 2.07 1.80 1.57 1.54 1.53 1.44 1.40 1.41
0.72 0.78 0.82 0.86 0.90 0.92 0.94 0.95 0.95 0.96 0.97 0.98 0.97 0.96 0.96 0.95 0.94 0.94 0.94 0.96 0.98 0.98 0.94 0.96 1.03 1.08 1.13 1.23 1.37 1.47 1.60 1.76 1.96 2.07 2.00 1.93 1.74 1.55 1.52 1.51 1.43 1.41 1.41
0.72 0.76 0.80 0.83 0.88 0.92 0.95 0.97 0.97 0.98 1.00 1.00 0.99 0.99 0.99 0.96 0.91 0.90 0.90 0.91 0.93 0.92 0.88 0.89 0.92 1.00 1.10 1.21 1.24 1.36 1.50 1.49 1.45 1.49 1.71 1.85 1.73 1.52 1.49 1.55 1.45 1.42 1.41

GEFSGL_prec_meanprecacc_336.txt.gz
Total_Precipitation_Accumulation
1.11 1.30 1.48 1.64 1.81 1.94 2.03 2.06 2.08 2.14 2.24 2.30 2.25 2.29 2.38 2.42 2.37 2.37 2.36 2.26 2.13 2.00 1.91 1.86 1.80 1.73 1.75 1.72 1.76 1.84 1.89 1.96 1.95 1.52 1.29 1.29 1.39 1.39 1.42 1.33 1.29 1.26 1.21
1.00 1.11 1.31 1.41 1.55 1.72 1.83 1.87 1.87 1.91 1.96 2.02 2.07 2.12 2.14 2.19 2.23 2.25 2.23 2.19 2.15 2.03 1.94 1.90 1.83 1.80 1.89 1.89 1.90 1.89 1.86 1.82 1.83 1.65 1.38 1.29 1.29 1.24 1.21 1.23 1.23 1.22 1.13
0.96 1.00 1.14 1.28 1.37 1.45 1.57 1.67 1.73 1.76 1.83 1.88 1.89 1.99 2.03 2.01 2.06 2.10 2.11 2.12 2.12 2.08 2.02 1.99 1.93 1.92 1.96 1.95 1.92 1.89 1.83 1.77 1.74 1.69 1.52 1.37 1.35 1.29 1.27 1.25 1.22 1.21 1.13
0.88 0.96 0.99 1.15 1.27 1.33 1.38 1.46 1.53 1.56 1.63 1.67 1.71 1.74 1.83 1.88 1.92 2.01 2.08 2.07 2.08 2.08 2.05 2.01 1.95 1.93 1.89 1.84 1.80 1.75 1.74 1.78 1.78 1.77 1.65 1.51 1.45 1.42 1.44 1.47 1.42 1.29 1.23
0.80 0.91 0.96 1.02 1.11 1.23 1.33 1.40 1.49 1.51 1.54 1.58 1.61 1.63 1.65 1.71 1.80 1.90 2.01 2.09 2.10 2.10 2.09 2.01 1.89 1.85 1.78 1.75 1.72 1.67 1.68 1.81 1.88 1.89 1.78 1.63 1.51 1.51 1.54 1.46 1.46 1.41 1.34
0.78 0.83 0.91 0.99 1.03 1.08 1.18 1.30 1.39 1.50 1.55 1.57 1.64 1.68 1.70 1.75 1.98 2.08 2.05 2.06 2.08 2.03 1.95 1.83 1.75 1.74 1.69 1.73 1.76 1.73 1.79 1.94 2.04 1.98 1.81 1.59 1.36 1.29 1.37 1.52 1.65 1.72 1.64
0.84 0.83 0.87 0.94 1.04 1.09 1.12 1.22 1.38 1.49 1.65 1.73 1.76 1.83 1.84 1.86 1.94 1.84 1.89 1.89 1.93 1.93 1.84 1.71 1.62 1.52 1.51 1.39 1.53 1.66 1.70 1.80 1.83 1.77 1.68 1.42 1.29 1.25 1.49 1.75 1.75 1.68 1.44
0.88 0.91 0.93 0.94 1.06 1.17 1.20 1.26 1.37 1.47 1.62 1.78 1.83 1.86 1.85 1.84 1.84 1.71 1.70 1.58 1.58 1.62 1.63 1.61 1.55 1.50 1.43 1.41 1.46 1.54 1.44 1.39 1.40 1.32 1.31 1.31 1.31 1.33 1.54 1.82 1.84 1.82 1.57
0.90 0.95 0.99 1.02 1.14 1.24 1.26 1.29 1.35 1.42 1.50 1.58 1.67 1.69 1.65 1.64 1.64 1.54 1.54 1.44 1.43 1.40 1.37 1.42 1.47 1.41 1.52 1.63 1.58 1.53 1.36 1.22 1.24 1.33 1.40 1.40 1.48 1.50 1.59 1.96 2.15 2.21 1.97
1.01 1.04 1.08 1.17 1.30 1.36 1.34 1.33 1.31 1.32 1.33 1.31 1.33 1.32 1.31 1.31 1.38 1.35 1.35 1.27 1.31 1.28 1.28 1.32 1.46 1.43 1.54 1.65 1.52 1.50 1.41 1.22 1.16 1.16 1.16 1.17 1.16 1.23 1.45 1.67 2.13 2.47 2.14
1.09 1.11 1.13 1.20 1.28 1.34 1.32 1.26 1.24 1.21 1.19 1.15 1.13 1.12 1.10 1.13 1.18 1.18 1.22 1.17 1.18 1.22 1.23 1.21 1.25 1.50 1.58 1.60 1.49 1.35 1.37 1.33 1.19 1.10 1.09 1.06 1.06 1.10 1.18 1.29 1.62 2.27 2.47
1.02 1.04 1.04 1.07 1.13 1.21 1.25 1.21 1.16 1.17 1.16 1.14 1.13 1.15 1.12 1.13 1.14 1.14 1.20 1.23 1.25 1.21 1.15 1.07 1.16 1.42 1.42 1.40 1.35 1.37 1.50 1.41 1.20 1.19 1.17 1.13 1.09 1.06 1.07 1.14 1.28 1.50 1.79
0.91 0.96 0.95 0.92 0.95 1.02 1.09 1.13 1.15 1.16 1.16 1.15 1.15 1.17 1.15 1.12 1.16 1.23 1.21 1.29 1.30 1.17 1.13 1.25 1.29 1.28 1.23 1.23 1.32 1.37 1.33 1.30 1.38 1.44 1.31 1.13 1.03 1.01 1.05 1.14 1.21 1.29 1.40
0.76 0.84 0.87 0.87 0.88 0.88 0.92 1.02 1.10 1.15 1.16 1.13 1.15 1.19 1.15 1.07 1.08 1.15 1.18 1.22 1.26 1.22 1.23 1.28 1.24 1.16 1.11 1.14 1.24 1.26 1.22 1.28 1.45 1.52 1.40 1.18 1.08 1.11 1.18 1.27 1.42 1.47 1.61
0.67 0.72 0.76 0.82 0.87 0.91 0.92 1.00 1.11 1.17 1.28 1.32 1.23 1.19 1.22 1.21 1.20 1.33 1.36 1.30 1.34 1.37 1.35 1.19 1.09 1.06 1.05 1.04 1.06 1.08 1.15 1.26 1.39 1.35 1.38 1.35 1.28 1.28 1.31 1.39 1.61 1.75 1.82
0.71 0.71 0.75 0.82 0.86 0.89 0.91 0.96 1.07 1.13 1.19 1.23 1.26 1.26 1.22 1.27 1.31 1.37 1.42 1.47 1.51 1.50 1.40 1.24 1.11 1.03 0.99 0.96 0.98 1.03 1.08 1.17 1.30 1.40 1.44 1.44 1.44 1.42 1.42 1.45 1.65 1.85 1.84
0.76 0.78 0.79 0.84 0.89 0.88 0.88 0.91 0.97 1.01 1.05 1.07 1.13 1.20 1.22 1.24 1.25 1.30 1.40 1.45 1.42 1.39 1.36 1.26 1.13 1.06 1.02 0.96 0.97 1.01 1.04 1.06 1.21 1.41 1.51 1.54 1.56 1.53 1.53 1.59 1.69 1.79 1.74
0.74 0.80 0.84 0.87 0.92 0.92 0.90 0.90 0.92 0.95 0.97 0.99 1.03 1.11 1.16 1.20 1.26 1.31 1.36 1.37 1.36 1.26 1.20 1.19 1.14 1.08 1.07 1.08 1.09 1.11 1.11 1.11 1.21 1.35 1.43 1.50 1.60 1.68 1.68 1.66 1.69 1.74 1.70
0.72 0.76 0.80 0.86 0.91 0.95 0.94 0.92 0.93 0.91 0.91 0.94 0.96 1.06 1.16 1.19 1.25 1.31 1.28 1.22 1.19 1.14 1.09 1.07 1.06 1.09 1.13 1.17 1.20 1.22 1.26 1.31 1.35 1.49 1.51 1.52 1.61 1.74 1.72 1.61 1.60 1.57 1.52
0.68 0.78 0.84 0.88 0.89 0.91 0.94 0.96 0.95 0.92 0.91 0.90 0.91 0.99 1.11 1.19 1.19 1.16 1.13 1.10 1.12 1.12 1.07 1.07 1.07 1.07 1.15 1.22 1.26 1.30 1.36 1.38 1.41 1.52 1.57 1.60 1.65 1.75 1.74 1.59 1.50 1.49 1.41
0.69 0.73 0.80 0.84 0.88 0.91 0.93 0.97 0.97 0.95 0.94 0.92 0.91 1.00 1.21 1.22 1.11 1.00 1.01 1.06 1.11 1.12 1.11 1.10 1.09 1.13 1.19 1.25 1.32 1.34 1.39 1.41 1.45 1.57 1.62 1.60 1.61 1.61 1.51 1.48 1.45 1.44 1.46
0.71 0.73 0.73 0.79 0.86 0.92 0.98 1.00 1.00 0.97 0.93 0.92 0.92 0.96 1.10 1.06 1.03 1.02 1.02 1.02 1.02 1.04 1.07 1.15 1.16 1.15 1.28 1.45 1.58 1.63 1.52 1.43 1.44 1.56 1.59 1.49 1.45 1.45 1.44 1.47 1.46 1.47 1.49
0.73 0.75 0.76 0.80 0.88 0.97 1.01 0.99 1.01 0.99 0.96 0.93 0.94 0.94 0.94 0.96 1.00 1.03 1.05 1.04 1.02 1.01 1.01 1.09 1.17 1.13 1.16 1.35 1.58 1.89 1.98 1.74 1.62 1.71 1.83 1.67 1.51 1.49 1.54 1.55 1.48 1.47 1.43
0.74 0.78 0.81 0.84 0.89 0.94 0.97 0.98 0.98 1.00 0.99 0.97 0.95 0.95 0.96 0.97 0.99 1.00 1.01 1.03 1.04 1.01 0.99 1.05 1.12 1.12 1.13 1.30 1.47 1.62 1.77 1.90 2.08 2.14 2.11 2.10 1.83 1.59 1.57 1.56 1.46 1.42 1.42
0.73 0.79 0.83 0.87 0.91 0.94 0.95 0.96 0.96 0.97 0.98 0.99 0.98 0.97 0.97 0.96 0.95 0.94 0.95 0.97 0.99 0.99 0.94 0.96 1.04 1.09 1.14 1.24 1.38 1.48 1.62 1.79 1.99 2.11 2.03 1.95 1.77 1.57 1.55 1.53 1.45 1.43 1.43
0.73 0.77 0.81 0.84 0.89 0.93 0.97 0.99 0.98 0.99 1.02 1.01 1.00 0.99 0.99 0.97 0.92 0.91 0.91 0.92 0.94 0.93 0.89 0.89 0.93 1.01 1.11 1.22 1.26 1.38 1.52 1.51 1.48 1.52 1.74 1.89 1.76 1.55 1.51 1.58 1.47 1.44 1.43